Location: Borgo
(42.3939°N, 9.2791°E)
Time: 01:50:49
(UTC+00:00)

ARGOS - Pass Details

Date: 24 January 2021
Orbit: 820 x 834 km, 98.4° (Epoch: 08 March)

Event Time Altitude Azimuth Distance (km) Brightness Sun altitude
Rises 17:54:19 0° 149° (SSE) 3,341 6.1 -16.2°
Reaches altitude 10° 17:56:43 10° 144° (SE) 2,413 5.3 -16.6°
Maximum altitude 18:01:50 49° 70° (ENE) 1,054 3.3 -17.5°
Drops below altitude 10° 18:07:00 10° 357° (N) 2,436 5.5 -18.5°
Sets 18:09:26 0° 353° (N) 3,375 6.3 -18.9°
